South St. Paul, MN

11:30 AM CDT on June 28, 2017 (GMT -0500)
South Saint Paul Municipal-Fleming

Weather History for KSGS - March, 2013

Change the Weather History Date:

Friday, March 8, 2013

  Actual Average (KSTP) Record (KSTP)
Temperature  
Mean Temperature 30 °F -  
Max Temperature 39 °F 30 °F 70 °F (2016)
Min Temperature 20 °F 15 °F -2 °F (2003)
Degree Days  
Heating Degree Days 36    
Moisture  
Dew Point 23 °F    
Average Humidity 76    
Maximum Humidity 89    
Minimum Humidity 65    
Precipitation  
Precipitation 0.00 in - - ()
Sea Level Pressure  
Sea Level Pressure 30.25 in    
Wind  
Wind Speed 5 mph (SSE)    
Max Wind Speed 10 mph    
Max Gust Speed 18 mph    
Visibility 9 miles    
Events      
Averages and records for this station are not official NWS values.
T = Trace of Precipitation, MM = Missing Value Source: NWS Daily Summary

Daily Weather History Graph

Daily Weather History Graph

Search for Another Location

Airport or City:

Trip Planner

Search our weather history database for the weather conditions in past years. The results will help you decide how hot, cold, wet, or windy it might be!

Date:

Astronomy

Mar. 08, 2013 Rise Set
Actual Time 6:36 AM CST 6:09 PM CST
Civil Twilight 6:07 AM CST 6:38 PM CST
Nautical Twilight 5:33 AM CST 7:12 PM CST
Astronomical Twilight 4:59 AM CST 7:46 PM CST
Moon 4:28 AM CST (3/8) 2:59 PM CST (3/8)
Length of Visible Light 12h 30m
Length of Day
11h 32m
Waning Crescent, 11% of the Moon is Illuminated
Mar 8
Waning Crescent
Mar 11
New
Mar 19
First Quarter
Mar 27
Full
Apr 2
Last Quarter

Hourly Weather History & Observations

Time (CST) Temp. Windchill Dew Point Humidity Pressure Visibility Wind Dir Wind Speed Gust Speed Precip Events Conditions
12:12 AM 23.2 °F 18.7 °F 16.0 °F 74% 30.33 in 10.0 mi SSE 3.5 mph - N/A   Clear
12:32 AM 23.4 °F 18.9 °F 16.2 °F 74% 30.32 in 10.0 mi SSE 3.5 mph - N/A   Clear
12:52 AM 23.0 °F 17.0 °F 16.5 °F 76% 30.32 in 10.0 mi SE 4.6 mph - N/A   Clear
1:12 AM 23.4 °F 17.4 °F 16.7 °F 76% 30.32 in 10.0 mi SSE 4.6 mph - N/A   Clear
1:32 AM 23.4 °F 16.2 °F 16.7 °F 76% 30.32 in 10.0 mi SSE 5.8 mph - N/A   Clear
1:52 AM 23.0 °F 15.8 °F 16.7 °F 77% 30.32 in 10.0 mi SSE 5.8 mph - N/A   Clear
2:12 AM 23.0 °F 18.4 °F 16.9 °F 77% 30.32 in 10.0 mi SSE 3.5 mph - N/A   Clear
2:32 AM 22.1 °F 17.4 °F 16.7 °F 80% 30.32 in 10.0 mi South 3.5 mph - N/A   Clear
2:52 AM 21.7 °F 17.0 °F 16.5 °F 80% 30.32 in 10.0 mi South 3.5 mph - N/A   Clear
3:12 AM 20.1 °F - 15.8 °F 83% 30.31 in 10.0 mi Calm Calm - N/A   Clear
3:32 AM 20.1 °F - 16.2 °F 85% 30.31 in 10.0 mi Calm Calm - N/A   Clear
3:52 AM 20.3 °F - 16.5 °F 85% 30.31 in 10.0 mi Calm Calm - N/A   Clear
4:12 AM 20.8 °F 16.0 °F 17.1 °F 85% 30.31 in 10.0 mi SSE 3.5 mph - N/A   Clear
4:32 AM 20.8 °F - 17.1 °F 85% 30.31 in 7.0 mi Calm Calm - N/A   Clear
4:52 AM 20.8 °F 14.4 °F 17.2 °F 86% 30.31 in 7.0 mi SSE 4.6 mph - N/A   Clear
5:12 AM 20.8 °F 14.4 °F 17.2 °F 86% 30.32 in 7.0 mi SSE 4.6 mph - N/A   Clear
5:32 AM 20.7 °F 15.8 °F 17.2 °F 87% 30.32 in 7.0 mi SSE 3.5 mph - N/A   Clear
5:52 AM 20.7 °F 15.8 °F 17.4 °F 87% 30.32 in 7.0 mi SSE 3.5 mph - N/A   Clear
6:12 AM 20.3 °F - 17.2 °F 88% 30.32 in 7.0 mi Calm Calm - N/A   Clear
6:32 AM 20.1 °F 15.2 °F 17.4 °F 89% 30.31 in 7.0 mi SSE 3.5 mph - N/A   Clear
6:52 AM 20.1 °F 15.2 °F 17.4 °F 89% 30.32 in 5.0 mi SSE 3.5 mph - N/A   Clear
7:12 AM 20.3 °F 15.4 °F 17.6 °F 89% 30.32 in 5.0 mi SE 3.5 mph - N/A   Clear
7:32 AM 20.5 °F 15.6 °F 17.8 °F 89% 30.31 in 5.0 mi SSE 3.5 mph - N/A   Clear
7:52 AM 21.2 °F 16.4 °F 18.1 °F 88% 30.31 in 5.0 mi SE 3.5 mph - N/A   Clear
8:12 AM 22.1 °F 14.7 °F 18.5 °F 86% 30.30 in 7.0 mi SSE 5.8 mph - N/A   Clear
8:32 AM 23.4 °F 17.4 °F 19.0 °F 84% 30.30 in 7.0 mi SE 4.6 mph - N/A   Clear
8:52 AM 24.4 °F 18.6 °F 19.4 °F 81% 30.30 in 7.0 mi SE 4.6 mph - N/A   Clear
9:12 AM 25.5 °F 18.7 °F 20.1 °F 80% 30.30 in 7.0 mi SSE 5.8 mph - N/A   Clear
9:32 AM 26.4 °F 19.8 °F 20.5 °F 78% 30.30 in 7.0 mi SE 5.8 mph - N/A   Clear
9:52 AM 27.3 °F 22.0 °F 21.0 °F 77% 30.31 in 7.0 mi SSE 4.6 mph - N/A   Clear
10:12 AM 28.0 °F 20.8 °F 21.6 °F 77% 30.31 in 10.0 mi South 6.9 mph - N/A   Clear
10:32 AM 28.9 °F 21.9 °F 21.9 °F 75% 30.30 in 10.0 mi South 6.9 mph - N/A   Clear
10:52 AM 29.8 °F 22.2 °F 22.3 °F 73% 30.31 in 7.0 mi South 8.1 mph - N/A   Clear
11:12 AM 30.9 °F 23.5 °F 23.0 °F 72% 30.30 in 10.0 mi SSE 8.1 mph - N/A   Clear
11:32 AM 31.6 °F 26.0 °F 23.4 °F 71% 30.29 in 10.0 mi SE 5.8 mph - N/A   Clear
11:52 AM 32.0 °F 24.8 °F 23.9 °F 72% 30.29 in 7.0 mi South 8.1 mph - N/A   Clear
12:12 PM 32.9 °F 25.3 °F 24.8 °F 72% 30.28 in 7.0 mi South 9.2 mph - N/A   Clear
12:32 PM 33.6 °F 27.5 °F 24.8 °F 70% 30.27 in 7.0 mi SSE 6.9 mph - N/A   Clear
12:52 PM 34.7 °F 28.1 °F 25.5 °F 69% 30.26 in 7.0 mi SSE 8.1 mph - N/A   Clear
1:12 PM 35.2 °F 30.3 °F 26.2 °F 70% 30.25 in 10.0 mi South 5.8 mph - N/A   Clear
1:32 PM 36.1 °F 31.4 °F 26.6 °F 68% 30.24 in 7.0 mi SSE 5.8 mph - N/A   Clear
1:52 PM 36.9 °F 30.1 °F 27.1 °F 68% 30.24 in 7.0 mi South 9.2 mph - N/A   Clear
2:12 PM 37.2 °F 31.2 °F 27.1 °F 67% 30.24 in 10.0 mi SSE 8.1 mph - N/A   Clear
2:32 PM 37.8 °F 30.7 °F 27.3 °F 66% 30.22 in 10.0 mi SSE 10.4 mph - N/A   Clear
2:52 PM 38.1 °F 31.7 °F 27.9 °F 67% 30.23 in 10.0 mi South 9.2 mph - N/A   Clear
3:12 PM 38.3 °F 31.9 °F 27.5 °F 65% 30.23 in 7.0 mi South 9.2 mph - N/A   Clear
3:32 PM 38.7 °F 32.4 °F 28.0 °F 66% 30.23 in 10.0 mi South 9.2 mph - N/A   Clear
3:52 PM 38.8 °F 32.6 °F 28.4 °F 66% 30.22 in 7.0 mi SSE 9.2 mph - N/A   Clear
4:12 PM 38.8 °F 33.8 °F 28.4 °F 66% 30.22 in 10.0 mi SSE 6.9 mph - N/A   Clear
4:32 PM 39.2 °F 35.0 °F 28.9 °F 67% 30.22 in 7.0 mi SSE 5.8 mph - N/A   Clear
4:52 PM 39.4 °F 34.5 °F 28.9 °F 66% 30.22 in 10.0 mi SSE 6.9 mph - N/A   Clear
5:12 PM 39.2 °F 34.2 °F 28.9 °F 67% 30.20 in 10.0 mi SSE 6.9 mph - N/A   Clear
5:32 PM 38.7 °F 33.6 °F 28.9 °F 68% 30.21 in 10.0 mi SE 6.9 mph - N/A   Clear
5:52 PM 38.3 °F 33.9 °F 28.9 °F 69% 30.20 in 10.0 mi SE 5.8 mph - N/A   Clear
6:12 PM 38.1 °F 33.7 °F 28.9 °F 70% 30.20 in 10.0 mi SSE 5.8 mph - N/A   Clear
6:32 PM 37.4 °F 34.9 °F 28.9 °F 71% 30.19 in 10.0 mi SSE 3.5 mph - N/A   Clear
6:52 PM 36.9 °F 34.3 °F 28.9 °F 73% 30.19 in 10.0 mi SE 3.5 mph - N/A   Clear
7:12 PM 36.5 °F 33.9 °F 28.9 °F 74% 30.18 in 10.0 mi SSE 3.5 mph - N/A   Clear
7:32 PM 36.3 °F 32.5 °F 28.8 °F 74% 30.17 in 7.0 mi SSE 4.6 mph - N/A   Clear
7:52 PM 36.5 °F 31.8 °F 28.9 °F 74% 30.16 in 10.0 mi SSE 5.8 mph - N/A   Clear
8:12 PM 36.5 °F 31.8 °F 29.1 °F 75% 30.15 in 10.0 mi SE 5.8 mph - N/A   Clear
8:32 PM 36.7 °F 32.0 °F 28.9 °F 74% 30.15 in 10.0 mi SE 5.8 mph - N/A   Clear
8:52 PM 36.7 °F 32.0 °F 28.8 °F 73% 30.14 in 10.0 mi SE 5.8 mph - N/A   Clear
9:12 PM 36.5 °F 32.7 °F 28.4 °F 72% 30.14 in 10.0 mi SSE 4.6 mph - N/A   Clear
9:32 PM 36.5 °F 32.7 °F 28.4 °F 72% 30.14 in 10.0 mi SE 4.6 mph - N/A   Clear
9:52 PM 36.1 °F 31.4 °F 28.4 °F 73% 30.13 in 10.0 mi SE 5.8 mph - N/A   Clear
10:12 PM 36.1 °F 30.6 °F 28.2 °F 73% 30.12 in 10.0 mi SSE 6.9 mph - N/A   Clear
10:32 PM 36.5 °F 29.2 °F 28.2 °F 72% 30.12 in 10.0 mi SSE 10.4 mph - N/A   Clear
10:52 PM 36.3 °F 29.5 °F 28.2 °F 72% 30.12 in 10.0 mi SSE 9.2 mph - N/A   Clear
11:12 PM 36.1 °F 29.3 °F 28.0 °F 72% 30.10 in 10.0 mi SSE 9.2 mph 16.1 mph N/A   Scattered Clouds
11:32 PM 36.0 °F 30.3 °F 27.9 °F 72% 30.10 in 10.0 mi SSE 6.9 mph 18.4 mph N/A   Overcast
11:52 PM 35.8 °F 28.8 °F 27.5 °F 72% 30.09 in 10.0 mi SE 9.2 mph - N/A   Overcast